| time (UTC) | temp F | wind direction | speed MPH | gust MPH | rain 1hr in | rain 24hr in | rain mn in | humidity % | barometer mb |
| 20260906183150 | 52 | 180 | 0.0 | 0.0 | 0.01 | 0.03 | 0.03 | 96 | |
| 20260906182650 | 52 | 180 | 0.0 | 0.0 | 0.01 | 0.03 | 0.03 | 95 | |
| 20260906182150 | 52 | 180 | 0.0 | 0.0 | 0.00 | 0.02 | 0.02 | 95 | |
| 20260906181650 | 53 | 180 | 0.0 | 0.0 | 0.00 | 0.02 | 0.02 | 93 | |
| 20260906181150 | 53 | 180 | 0.0 | 0.0 | 0.00 | 0.02 | 0.02 | 91 | |
| 20260906180650 | 54 | 180 | 0.0 | 0.0 | 0.00 | 0.02 | 0.02 | 100 | |
| 20260906180150 | 55 | 180 | 0.0 | 0.0 | 0.00 | 0.02 | 0.02 | 100 | |
| 20260906175650 | 55 | 180 | 0.0 | 0.0 | 0.00 | 0.02 | 0.02 | 87 | |
| 20260906175150 | 56 | 180 | 0.0 | 0.0 | 0.00 | 0.02 | 0.02 | 100 | |
| 20260906174650 | 56 | 180 | 0.0 | 0.0 | 0.00 | 0.02 | 0.02 | 80 | |
| 20260906174150 | 57 | 180 | 0.0 | 0.0 | 0.00 | 0.02 | 0.02 | 80 | |
| 20260906173650 | 58 | 180 | 0.0 | 0.0 | 0.00 | 0.02 | 0.02 | 74 | |
| 20260906173150 | 58 | 180 | 0.0 | 4.0 | 0.00 | 0.02 | 0.02 | 73 | |
| 20260906172651 | 58 | 180 | 0.0 | 0.0 | 0.00 | 0.02 | 0.02 | 72 | |
| 20260906172151 | 59 | 180 | 0.0 | 0.0 | 0.00 | 0.02 | 0.02 | 71 | |
| 20260906171651 | 59 | 180 | 0.0 | 2.0 | 0.00 | 0.02 | 0.02 | 68 | |
| 20260906171151 | 59 | 180 | 0.0 | 5.0 | 0.00 | 0.02 | 0.02 | 67 | |
| 20260906170651 | 59 | 180 | 0.0 | 2.0 | 0.00 | 0.02 | 0.02 | 66 | |
| 20260906170151 | 59 | 180 | 0.0 | 0.0 | 0.00 | 0.02 | 0.02 | 66 | |
| 20260906165651 | 59 | 180 | 0.0 | 5.0 | 0.00 | 0.02 | 0.02 | 65 | |
| 20260906165151 | 60 | 180 | 0.0 | 0.0 | 0.01 | 0.02 | 0.02 | 66 | |
| 20260906164651 | 60 | 180 | 0.0 | 6.0 | 0.01 | 0.02 | 0.02 | 64 | |
| 20260906164151 | 60 | 180 | 1.0 | 6.0 | 0.01 | 0.02 | 0.02 | 64 | |
| 20260906163651 | 61 | 180 | 1.0 | 3.0 | 0.01 | 0.02 | 0.02 | 64 | |
| 20260906163151 | 61 | 180 | 0.0 | 5.0 | 0.01 | 0.02 | 0.02 | 63 | |
| 20260906162651 | 61 | 180 | 0.0 | 5.0 | 0.01 | 0.02 | 0.02 | 64 | |
| 20260906162151 | 61 | 180 | 2.0 | 3.0 | 0.02 | 0.02 | 0.02 | 63 | |
| 20260906161651 | 61 | 180 | 0.0 | 5.0 | 0.02 | 0.02 | 0.02 | 64 | |
| 20260906161151 | 60 | 180 | 0.0 | 8.0 | 0.02 | 0.02 | 0.02 | 63 | |
| 20260906160651 | 61 | 180 | 1.0 | 6.0 | 0.02 | 0.02 | 0.02 | 100 | |
| 20260906160151 | 60 | 180 | 0.0 | 9.0 | 0.02 | 0.02 | 0.02 | 63 | |
| 20260906155651 | 61 | 180 | 1.0 | 7.0 | 0.02 | 0.02 | 0.01 | 63 | |
| 20260906155151 | 61 | 180 | 0.0 | 7.0 | 0.01 | 0.01 | 0.01 | 62 | |
| 20260906154651 | 61 | 180 | 1.0 | 4.0 | 0.01 | 0.01 | 0.01 | 63 | |
| 20260906154151 | 61 | 180 | 0.0 | 7.0 | 0.01 | 0.01 | 0.01 | 62 | |
| 20260906153651 | 61 | 180 | 1.0 | 9.0 | 0.01 | 0.01 | 0.01 | 61 | |
| 20260906153151 | 61 | 180 | 0.0 | 8.0 | 0.01 | 0.01 | 0.01 | 62 | |
| 20260906152651 | 61 | 180 | 3.0 | 8.0 | 0.01 | 0.01 | 0.01 | 60 | |
| 20260906152151 | 61 | 180 | 0.0 | 4.0 | 0.00 | 0.00 | 0.00 | 62 | |
| 20260906151651 | 61 | 180 | 4.0 | 7.0 | 0.00 | 0.00 | 0.00 | 61 | |
| 20260906151151 | 61 | 180 | 4.0 | 9.0 | 0.00 | 0.00 | 0.00 | 61 | |
| 20260906150651 | 61 | 180 | 0.0 | 9.0 | 0.00 | 0.00 | 0.00 | 61 | |
| 20260906150151 | 61 | 180 | 1.0 | 9.0 | 0.00 | 0.00 | 0.00 | 60 | |
| 20260906145651 | 61 | 180 | 0.0 | 8.0 | 0.00 | 0.00 | 0.00 | 60 | |
| 20260906145151 | 61 | 180 | 1.0 | 10.0 | 0.00 | 0.00 | 0.00 | 60 | |
| 20260906144651 | 61 | 180 | 8.0 | 8.0 | 0.00 | 0.00 | 0.00 | 60 | |
| 20260906144151 | 62 | 180 | 2.0 | 11.0 | 0.00 | 0.00 | 0.00 | 59 | |
| 20260906143651 | 62 | 180 | 0.0 | 10.0 | 0.00 | 0.00 | 0.00 | 58 | |
| 20260906143151 | 62 | 180 | 3.0 | 12.0 | 0.00 | 0.00 | 0.00 | 57 | |
| 20260906142651 | 62 | 180 | 9.0 | 11.0 | 0.00 | 0.00 | 0.00 | 56 | |
| 20260906142151 | 62 | 180 | 2.0 | 6.0 | 0.00 | 0.00 | 0.00 | 59 | |
| 20260906141651 | 62 | 180 | 0.0 | 12.0 | 0.00 | 0.00 | 0.00 | 60 | |
| 20260906141151 | 62 | 180 | 3.0 | 10.0 | 0.00 | 0.00 | 0.00 | 59 | |
| 20260906140651 | 62 | 180 | 4.0 | 14.0 | 0.00 | 0.00 | 0.00 | 57 | |
| 20260906140151 | 62 | 180 | 6.0 | 11.0 | 0.00 | 0.00 | 0.00 | 58 | |
| 20260906135651 | 62 | 180 | 5.0 | 15.0 | 0.00 | 0.00 | 0.00 | 56 | |
| 20260906135151 | 62 | 180 | 2.0 | 11.0 | 0.00 | 0.00 | 0.00 | 56 | |
| 20260906134651 | 62 | 180 | 4.0 | 6.0 | 0.00 | 0.00 | 0.00 | 58 | |
| 20260906134152 | 61 | 180 | 1.0 | 14.0 | 0.00 | 0.00 | 0.00 | 57 | |
| 20260906133651 | 61 | 180 | 5.0 | 12.0 | 0.00 | 0.00 | 0.00 | 57 | |
| 20260906133151 | 62 | 180 | 2.0 | 11.0 | 0.00 | 0.00 | 0.00 | 58 | |
| 20260906132651 | 62 | 180 | 4.0 | 15.0 | 0.00 | 0.00 | 0.00 | 57 | |
| 20260906132151 | 62 | 180 | 3.0 | 11.0 | 0.00 | 0.00 | 0.00 | 57 | |
| 20260906131651 | 62 | 180 | 4.0 | 15.0 | 0.00 | 0.00 | 0.00 | 58 | |
| 20260906131151 | 62 | 180 | 3.0 | 16.0 | 0.00 | 0.00 | 0.00 | 100 | |
| 20260906130651 | 62 | 180 | 3.0 | 8.0 | 0.00 | 0.00 | 0.00 | 58 | |
| 20260906130151 | 62 | 180 | 3.0 | 11.0 | 0.00 | 0.00 | 0.00 | 58 | |
| 20260906125651 | 61 | 180 | 0.0 | 10.0 | 0.00 | 0.00 | 0.00 | 58 | |
| 20260906125151 | 62 | 180 | 5.0 | 16.0 | 0.00 | 0.00 | 0.00 | 58 | |
| 20260906124651 | 62 | 180 | 0.0 | 8.0 | 0.00 | 0.00 | 0.00 | 57 | |
| 20260906124151 | 62 | 180 | 6.0 | 12.0 | 0.00 | 0.00 | 0.00 | 57 | |
| 20260906123651 | 62 | 180 | 6.0 | 10.0 | 0.00 | 0.00 | 0.00 | 57 | |
| 20260906123151 | 61 | 180 | 5.0 | 7.0 | 0.00 | 0.00 | 0.00 | 59 | |
| 20260906122651 | 61 | 180 | 0.0 | 10.0 | 0.00 | 0.00 | 0.00 | 59 | |
| 20260906122151 | 61 | 180 | 2.0 | 13.0 | 0.00 | 0.00 | 0.00 | 58 | |
| 20260906121651 | 62 | 180 | 1.0 | 10.0 | 0.00 | 0.00 | 0.00 | 58 | |
| 20260906121151 | 62 | 180 | 10.0 | 10.0 | 0.00 | 0.00 | 0.00 | 57 | |
| 20260906120651 | 61 | 180 | 1.0 | 14.0 | 0.00 | 0.00 | 0.00 | 60 | |
| 20260906120151 | 61 | 180 | 2.0 | 10.0 | 0.00 | 0.00 | 0.00 | 60 | |
| 20260906115651 | 61 | 180 | 0.0 | 8.0 | 0.00 | 0.00 | 0.00 | 59 | |
| 20260906115151 | 61 | 180 | 4.0 | 8.0 | 0.00 | 0.00 | 0.00 | 61 | |
| 20260906114651 | 61 | 180 | 4.0 | 8.0 | 0.00 | 0.08 | 0.00 | 61 | |
| 20260906114151 | 61 | 180 | 7.0 | 9.0 | 0.00 | 0.08 | 0.00 | 61 | |
| 20260906113651 | 61 | 180 | 0.0 | 11.0 | 0.00 | 0.08 | 0.00 | 62 | |
| 20260906113151 | 60 | 180 | 6.0 | 9.0 | 0.00 | 0.08 | 0.00 | 62 | |
| 20260906112651 | 61 | 180 | 5.0 | 11.0 | 0.00 | 0.08 | 0.00 | 62 | |
| 20260906112151 | 61 | 180 | 5.0 | 11.0 | 0.00 | 0.08 | 0.00 | 60 | |
| 20260906111651 | 61 | 180 | 1.0 | 11.0 | 0.00 | 0.08 | 0.00 | 60 | |
| 20260906111151 | 61 | 180 | 9.0 | 11.0 | 0.00 | 0.08 | 0.00 | 59 | |
| 20260906110651 | 61 | 180 | 3.0 | 9.0 | 0.00 | 0.08 | 0.00 | 58 | |
| 20260906110151 | 61 | 180 | 1.0 | 12.0 | 0.00 | 0.08 | 0.00 | 57 | |
| 20260906105651 | 62 | 180 | 9.0 | 14.0 | 0.00 | 0.08 | 0.00 | 56 | |
| 20260906105152 | 62 | 180 | 0.0 | 8.0 | 0.00 | 0.08 | 0.00 | 57 | |
| 20260906104652 | 62 | 180 | 0.0 | 17.0 | 0.00 | 1.47 | 0.00 | 56 | |
| 20260906104152 | 62 | 180 | 16.0 | 16.0 | 0.00 | 1.47 | 0.00 | 56 | |
| 20260906103652 | 62 | 180 | 5.0 | 13.0 | 0.00 | 1.47 | 0.00 | 57 | |
| 20260906103152 | 61 | 180 | 8.0 | 13.0 | 0.00 | 1.47 | 0.00 | 59 | |
| 20260906102652 | 60 | 180 | 2.0 | 12.0 | 0.00 | 1.47 | 0.00 | 61 | |
| 20260906102152 | 61 | 180 | 3.0 | 13.0 | 0.00 | 1.47 | 0.00 | 60 | |
| 20260906101652 | 60 | 180 | 5.0 | 14.0 | 0.00 | 1.47 | 0.00 | 59 | |
| 20260906101152 | 60 | 180 | 0.0 | 11.0 | 0.00 | 1.47 | 0.00 | 61 | |
| 20260906100652 | 59 | 180 | 1.0 | 11.0 | 0.00 | 1.47 | 0.00 | 60 | |
| 20260906100152 | 59 | 180 | 6.0 | 17.0 | 0.00 | 1.47 | 0.00 | 59 | |
| 20260906095652 | 60 | 180 | 4.0 | 16.0 | 0.00 | 1.47 | 0.00 | 57 | |
| 20260906095152 | 61 | 180 | 11.0 | 21.0 | 0.00 | 1.47 | 0.00 | 58 | |
| 20260906094652 | 61 | 180 | 5.0 | 10.0 | 0.00 | 1.54 | 0.00 | 62 | |
| 20260906094152 | 61 | 180 | 4.0 | 16.0 | 0.00 | 1.54 | 0.00 | 61 | |
| 20260906093652 | 60 | 180 | 7.0 | 18.0 | 0.00 | 1.54 | 0.00 | 63 | |
| 20260906093152 | 60 | 180 | 5.0 | 13.0 | 0.00 | 1.54 | 0.00 | 64 | |
| 20260906092652 | 60 | 180 | 4.0 | 20.0 | 0.00 | 1.54 | 0.00 | 62 | |
| 20260906092152 | 60 | 180 | 8.0 | 12.0 | 0.00 | 1.54 | 0.00 | 62 | |
| 20260906091652 | 60 | 180 | 5.0 | 15.0 | 0.00 | 1.54 | 0.00 | 64 | |
| 20260906091152 | 59 | 180 | 12.0 | 16.0 | 0.00 | 1.54 | 0.00 | 65 | |
| 20260906090652 | 59 | 180 | 4.0 | 15.0 | 0.00 | 1.54 | 0.00 | 64 | |
| 20260906090152 | 59 | 180 | 4.0 | 13.0 | 0.00 | 1.54 | 0.00 | 68 | |
| 20260906085652 | 59 | 180 | 4.0 | 17.0 | 0.00 | 1.54 | 0.00 | 68 | |
| 20260906085152 | 60 | 180 | 6.0 | 13.0 | 0.00 | 1.54 | 0.00 | 69 | |
| 20260906084652 | 59 | 180 | 9.0 | 14.0 | 0.00 | 1.56 | 1.56 | 68 | |
| 20260906084152 | 59 | 180 | 2.0 | 12.0 | 0.00 | 1.56 | 1.56 | 70 | |
| 20260906083652 | 59 | 180 | 10.0 | 14.0 | 0.00 | 1.56 | 1.56 | 69 | |
| 20260906083152 | 59 | 180 | 4.0 | 11.0 | 0.00 | 1.56 | 1.56 | 68 | |
| 20260906082652 | 59 | 180 | 6.0 | 16.0 | 0.00 | 1.56 | 1.56 | 70 | |
| 20260906082152 | 59 | 180 | 9.0 | 11.0 | 0.00 | 1.56 | 1.56 | 71 | |
| 20260906081652 | 59 | 180 | 5.0 | 11.0 | 0.00 | 1.56 | 1.56 | 70 | |
| 20260906081152 | 59 | 180 | 7.0 | 9.0 | 0.00 | 1.56 | 1.56 | 70 | |
| 20260906080652 | 59 | 180 | 7.0 | 15.0 | 0.00 | 1.56 | 1.56 | 70 | |
| 20260906080152 | 59 | 180 | 3.0 | 14.0 | 0.00 | 1.56 | 1.56 | 73 | |
| 20260906075652 | 59 | 180 | 3.0 | 10.0 | 0.00 | 1.56 | 1.56 | 73 | |
| 20260906075152 | 59 | 180 | 1.0 | 12.0 | 0.00 | 1.56 | 1.56 | 71 | |
| 20260906074652 | 59 | 180 | 4.0 | 13.0 | 0.00 | 1.59 | 1.56 | 67 | |
| 20260906074152 | 60 | 180 | 2.0 | 15.0 | 0.00 | 1.59 | 1.56 | 68 | |
| 20260906073652 | 59 | 180 | 4.0 | 19.0 | 0.00 | 1.59 | 1.56 | 69 | |
| 20260906073152 | 59 | 180 | 8.0 | 10.0 | 0.00 | 1.59 | 1.56 | 72 | |
| 20260906072652 | 58 | 180 | 0.0 | 16.0 | 0.00 | 1.59 | 1.56 | 76 | |
| 20260906072152 | 58 | 180 | 4.0 | 12.0 | 0.00 | 1.59 | 1.56 | 80 | |
| 20260906071652 | 57 | 180 | 7.0 | 13.0 | 0.00 | 1.59 | 1.56 | 82 | |
| 20260906071152 | 57 | 180 | 8.0 | 15.0 | 0.00 | 1.59 | 1.56 | 79 | |
| 20260906070652 | 57 | 180 | 4.0 | 10.0 | 0.00 | 1.59 | 1.56 | 81 | |
| 20260906070152 | 57 | 180 | 3.0 | 16.0 | 0.00 | 1.59 | 1.56 | 83 | |
| 20260906065652 | 57 | 180 | 5.0 | 12.0 | 0.00 | 1.59 | 1.56 | 84 | |
| 20260906065152 | 57 | 180 | 2.0 | 11.0 | 0.00 | 1.59 | 1.56 | 83 | |
| 20260906064652 | 57 | 180 | 6.0 | 9.0 | 0.00 | 1.59 | 1.56 | 83 | |
| 20260906064152 | 57 | 180 | 5.0 | 8.0 | 0.00 | 1.59 | 1.56 | 84 | |
| 20260906063652 | 57 | 180 | 0.0 | 8.0 | 0.00 | 1.59 | 1.56 | 84 | |
| 20260906063152 | 57 | 180 | 5.0 | 10.0 | 0.00 | 1.59 | 1.56 | 83 | |
| 20260906062652 | 57 | 180 | 9.0 | 9.0 | 0.00 | 1.59 | 1.56 | 83 | |
| 20260906062152 | 57 | 180 | 1.0 | 16.0 | 0.00 | 1.59 | 1.56 | 82 | |
| 20260906061652 | 57 | 180 | 4.0 | 17.0 | 0.00 | 1.59 | 1.56 | 82 | |
| 20260906061152 | 57 | 180 | 1.0 | 9.0 | 0.00 | 1.59 | 1.56 | 84 | |
| 20260906060652 | 57 | 180 | 2.0 | 11.0 | 0.00 | 1.59 | 1.56 | 86 | |
| 20260906060152 | 57 | 180 | 4.0 | 10.0 | 0.00 | 1.59 | 1.56 | 88 | |
| 20260906055652 | 57 | 180 | 0.0 | 7.0 | 0.00 | 1.59 | 1.56 | 90 | |
| 20260906055152 | 57 | 180 | 2.0 | 8.0 | 0.00 | 1.59 | 1.56 | 91 | |
| 20260906054652 | 57 | 180 | 0.0 | 7.0 | 0.00 | 1.62 | 1.56 | 91 | |
| 20260906054152 | 56 | 180 | 2.0 | 8.0 | 0.00 | 1.62 | 1.56 | 91 | |
| 20260906053652 | 56 | 180 | 8.0 | 10.0 | 0.00 | 1.62 | 1.56 | 92 | |
| 20260906053152 | 56 | 180 | 2.0 | 8.0 | 0.00 | 1.62 | 1.56 | 92 | |
| 20260906052652 | 56 | 180 | 2.0 | 7.0 | 0.00 | 1.62 | 1.56 | 92 | |
| 20260906052152 | 56 | 180 | 0.0 | 6.0 | 0.00 | 1.62 | 1.56 | 92 | |
| 20260906051652 | 57 | 180 | 1.0 | 7.0 | 0.00 | 1.62 | 1.56 | 92 | |
| 20260906051152 | 56 | 180 | 0.0 | 7.0 | 0.00 | 1.62 | 1.56 | 92 | |
| 20260906050652 | 56 | 180 | 6.0 | 9.0 | 0.00 | 1.62 | 1.56 | 91 | |
| 20260906050152 | 56 | 180 | 1.0 | 10.0 | 0.00 | 1.62 | 1.56 | 91 | |
| 20260906045652 | 56 | 180 | 4.0 | 10.0 | 0.00 | 1.62 | 1.56 | 92 | |
| 20260906045152 | 56 | 180 | 0.0 | 7.0 | 0.00 | 1.62 | 1.56 | 93 | |
| 20260906044652 | 56 | 180 | 3.0 | 8.0 | 0.00 | 1.62 | 1.56 | 93 | |
| 20260906044152 | 56 | 180 | 3.0 | 8.0 | 0.00 | 1.62 | 1.56 | 94 | |
| 20260906043652 | 56 | 180 | 0.0 | 7.0 | 0.00 | 1.62 | 1.56 | 100 | |
| 20260906043153 | 56 | 180 | 0.0 | 7.0 | 0.00 | 1.62 | 1.56 | 94 | |
| 20260906042653 | 56 | 180 | 1.0 | 7.0 | 0.00 | 1.62 | 1.56 | 94 | |
| 20260906042153 | 56 | 180 | 1.0 | 9.0 | 0.00 | 1.62 | 1.56 | 93 | |
| 20260906041653 | 56 | 180 | 1.0 | 9.0 | 0.00 | 1.62 | 1.56 | 93 | |
| 20260906041153 | 56 | 180 | 8.0 | 17.0 | 0.00 | 1.62 | 1.56 | 92 | |
| 20260906040653 | 56 | 180 | 11.0 | 11.0 | 0.00 | 1.62 | 1.56 | 92 | |
| 20260906040153 | 56 | 180 | 0.0 | 11.0 | 0.00 | 1.62 | 1.56 | 92 | |
| 20260906035653 | 56 | 180 | 2.0 | 6.0 | 0.00 | 1.62 | 1.56 | 93 | |
| 20260906035153 | 56 | 180 | 0.0 | 10.0 | 0.00 | 1.62 | 1.56 | 92 | |
| 20260906034653 | 56 | 180 | 0.0 | 8.0 | 0.00 | 1.71 | 1.56 | 92 | |
| 20260906034153 | 56 | 180 | 2.0 | 10.0 | 0.00 | 1.71 | 1.56 | 91 | |
| 20260906033653 | 56 | 180 | 0.0 | 5.0 | 0.00 | 1.71 | 1.56 | 91 | |
| 20260906033156 | 56 | 180 | 0.0 | 7.0 | 0.00 | 1.71 | 1.56 | 91 | |
| 20260906032653 | 57 | 180 | 1.0 | 5.0 | 0.00 | 1.71 | 1.56 | 91 | |
| 20260906032153 | 56 | 180 | 1.0 | 8.0 | 0.00 | 1.71 | 1.56 | 91 | |
| 20260906031653 | 56 | 180 | 4.0 | 5.0 | 0.00 | 1.71 | 1.56 | 90 | |
| 20260906031153 | 56 | 180 | 1.0 | 6.0 | 0.00 | 1.71 | 1.56 | 90 | |
| 20260906030653 | 57 | 180 | 0.0 | 6.0 | 0.00 | 1.71 | 1.56 | 90 | |
| 20260906030153 | 57 | 180 | 2.0 | 6.0 | 0.00 | 1.71 | 1.56 | 90 | |
| 20260906025653 | 56 | 180 | 3.0 | 9.0 | 0.00 | 1.71 | 1.56 | 90 | |
| 20260906025153 | 56 | 180 | 1.0 | 10.0 | 0.00 | 1.71 | 1.56 | 90 | |
| 20260906024653 | 56 | 180 | 6.0 | 9.0 | 0.00 | 1.80 | 1.56 | 90 | |
| 20260906024153 | 56 | 180 | 1.0 | 6.0 | 0.00 | 1.80 | 1.56 | 90 | |
| 20260906023653 | 56 | 180 | 1.0 | 11.0 | 0.00 | 1.80 | 1.56 | 90 | |
| 20260906023153 | 56 | 180 | 6.0 | 9.0 | 0.00 | 1.80 | 1.56 | 90 | |
| 20260906022653 | 57 | 180 | 1.0 | 10.0 | 0.00 | 1.80 | 1.56 | 90 | |
| 20260906022153 | 56 | 180 | 0.0 | 11.0 | 0.00 | 1.80 | 1.56 | 90 | |
| 20260906021653 | 56 | 180 | 3.0 | 11.0 | 0.00 | 1.80 | 1.56 | 91 | |
| 20260906021153 | 56 | 180 | 3.0 | 7.0 | 0.00 | 1.80 | 1.56 | 91 | |
| 20260906020653 | 56 | 180 | 7.0 | 9.0 | 0.00 | 1.80 | 1.56 | 91 | |
| 20260906020153 | 56 | 180 | 6.0 | 11.0 | 0.00 | 1.80 | 1.56 | 91 | |
| 20260906015653 | 57 | 180 | 2.0 | 4.0 | 0.00 | 1.80 | 1.56 | 90 | |
| 20260906015153 | 57 | 180 | 0.0 | 7.0 | 0.00 | 1.80 | 1.56 | 89 | |
| 20260906014653 | 56 | 180 | 0.0 | 9.0 | 0.00 | 1.86 | 1.56 | 88 | |
| 20260906014153 | 57 | 180 | 1.0 | 9.0 | 0.00 | 1.86 | 1.56 | 88 | |
| 20260906013653 | 57 | 180 | 2.0 | 11.0 | 0.00 | 1.86 | 1.56 | 87 | |
| 20260906013153 | 57 | 180 | 3.0 | 16.0 | 0.00 | 1.86 | 1.56 | 86 | |
| 20260906012653 | 57 | 180 | 6.0 | 8.0 | 0.00 | 1.86 | 1.56 | 85 | |
| 20260906012153 | 57 | 180 | 0.0 | 7.0 | 0.00 | 1.86 | 1.56 | 84 | |
| 20260906011653 | 57 | 180 | 6.0 | 8.0 | 0.00 | 1.86 | 1.56 | 83 | |
| 20260906011153 | 57 | 180 | 2.0 | 9.0 | 0.00 | 1.86 | 1.56 | 82 | |
| 20260906010653 | 57 | 180 | 5.0 | 8.0 | 0.00 | 1.86 | 1.56 | 82 | |
| 20260906010153 | 57 | 180 | 1.0 | 6.0 | 0.00 | 1.86 | 1.56 | 82 | |
| 20260906005653 | 57 | 180 | 1.0 | 5.0 | 0.00 | 1.86 | 1.56 | 81 | |
| 20260906005153 | 57 | 180 | 0.0 | 4.0 | 0.00 | 1.86 | 1.56 | 79 | |
| 20260906004653 | 57 | 180 | 0.0 | 8.0 | 0.00 | 1.86 | 1.56 | 78 | |
| 20260906004153 | 57 | 180 | 3.0 | 7.0 | 0.00 | 1.86 | 1.56 | 78 | |
| 20260906003653 | 58 | 180 | 3.0 | 3.0 | 0.00 | 1.86 | 1.56 | 78 | |
| 20260906003153 | 58 | 180 | 0.0 | 7.0 | 0.00 | 1.86 | 1.56 | 76 | |
| 20260906002653 | 58 | 180 | 0.0 | 6.0 | 0.00 | 1.86 | 1.56 | 74 | |
| 20260906002153 | 58 | 180 | 1.0 | 7.0 | 0.00 | 1.86 | 1.56 | 73 | |
| 20260906001653 | 59 | 180 | 0.0 | 8.0 | 0.00 | 1.86 | 1.56 | 71 | |
| 20260906001153 | 59 | 180 | 5.0 | 11.0 | 0.00 | 1.86 | 1.56 | 70 | |
| 20260906000153 | 59 | 180 | 5.0 | 7.0 | 0.00 | 1.86 | 1.56 | 69 | |
| 20260905235653 | 59 | 180 | 1.0 | 10.0 | 0.00 | 1.86 | 1.56 | 68 | |
| 20260905235153 | 60 | 180 | 7.0 | 8.0 | 0.00 | 1.86 | 1.56 | 68 | |
| 20260905234653 | 60 | 180 | 5.0 | 9.0 | 0.00 | 1.86 | 1.56 | 67 | |
| 20260905234153 | 60 | 180 | 4.0 | 9.0 | 0.00 | 1.86 | 1.56 | 66 | |
| 20260905233653 | 60 | 180 | 3.0 | 5.0 | 0.00 | 1.86 | 1.56 | 66 | |
| 20260905233153 | 60 | 180 | 0.0 | 10.0 | 0.00 | 1.86 | 1.56 | 66 | |
| 20260905232653 | 60 | 180 | 6.0 | 12.0 | 0.00 | 1.86 | 1.56 | 66 | |
| 20260905232153 | 61 | 180 | 8.0 | 10.0 | 0.00 | 1.86 | 1.56 | 65 | |
| 20260905231653 | 60 | 180 | 0.0 | 9.0 | 0.00 | 1.86 | 1.56 | 65 | |
| 20260905231153 | 61 | 180 | 0.0 | 10.0 | 0.00 | 1.86 | 1.56 | 65 | |
| 20260905230653 | 61 | 180 | 2.0 | 14.0 | 0.00 | 1.86 | 1.56 | 64 | |
| 20260905230153 | 61 | 180 | 5.0 | 15.0 | 0.00 | 1.86 | 1.56 | 64 | |
| 20260905225653 | 61 | 180 | 2.0 | 9.0 | 0.00 | 1.86 | 1.56 | 66 | |
| 20260905225153 | 60 | 180 | 6.0 | 15.0 | 0.00 | 1.86 | 1.56 | 100 | |
| 20260905224653 | 59 | 180 | 0.0 | 12.0 | 0.00 | 1.86 | 1.56 | 80 | |
| 20260905224153 | 57 | 180 | 0.0 | 5.0 | 0.00 | 1.86 | 1.56 | 86 | |
| 20260905223653 | 56 | 180 | 0.0 | 3.0 | 0.00 | 1.86 | 1.56 | 98 | |
| 20260905223153 | 54 | 180 | 0.0 | 0.0 | 0.00 | 1.86 | 1.56 | 100 | |
| 20260905222653 | 54 | 180 | 0.0 | 0.0 | 0.00 | 1.86 | 1.56 | 100 | |
| 20260905222153 | 54 | 180 | 0.0 | 0.0 | 0.00 | 1.86 | 1.56 | 100 | |
| 20260905221653 | 54 | 180 | 0.0 | 0.0 | 0.00 | 1.86 | 1.56 | 100 | |
| 20260905221154 | 54 | 180 | 0.0 | 0.0 | 0.00 | 1.86 | 1.56 | 100 | |
| 20260905220656 | 54 | 180 | 0.0 | 0.0 | 0.00 | 1.86 | 1.56 | 100 | |
| 20260905220154 | 54 | 180 | 0.0 | 0.0 | 0.00 | 1.86 | 1.56 | 100 | |
| 20260905215654 | 54 | 180 | 0.0 | 0.0 | 0.00 | 1.86 | 1.56 | 100 | |
| 20260905215154 | 54 | 180 | 0.0 | 0.0 | 0.00 | 1.86 | 1.56 | 100 | |
| 20260905214654 | 55 | 180 | 0.0 | 0.0 | 0.00 | 1.86 | 1.56 | 100 | |
| 20260905214154 | 54 | 180 | 0.0 | 0.0 | 0.00 | 1.86 | 1.56 | 100 | |
| 20260905213654 | 54 | 180 | 0.0 | 0.0 | 0.00 | 1.86 | 1.56 | 100 | |
| 20260905213154 | 55 | 180 | 0.0 | 0.0 | 0.00 | 1.86 | 1.56 | 100 | |
| 20260905212654 | 55 | 180 | 0.0 | 0.0 | 0.00 | 1.86 | 1.56 | 100 | |
| 20260905212154 | 55 | 180 | 0.0 | 0.0 | 0.00 | 1.86 | 1.56 | 100 | |
| 20260905211654 | 55 | 180 | 0.0 | 0.0 | 0.00 | 1.86 | 1.56 | 100 | |
| 20260905211154 | 55 | 180 | 0.0 | 0.0 | 0.00 | 1.86 | 1.56 | 100 | |
| 20260905210654 | 55 | 180 | 0.0 | 0.0 | 0.00 | 1.86 | 1.56 | 100 | |
| 20260905210154 | 55 | 180 | 0.0 | 0.0 | 0.00 | 1.86 | 1.56 | 100 | |
| 20260905205654 | 55 | 180 | 0.0 | 0.0 | 0.00 | 1.86 | 1.56 | 100 | |
| 20260905205154 | 55 | 180 | 0.0 | 0.0 | 0.00 | 1.86 | 1.56 | 100 | |
| 20260905204654 | 55 | 180 | 0.0 | 0.0 | 0.00 | 1.86 | 1.56 | 100 | |
| 20260905204154 | 55 | 180 | 0.0 | 0.0 | 0.00 | 1.86 | 1.56 | 100 | |
| 20260905203654 | 55 | 180 | 0.0 | 0.0 | 0.00 | 1.86 | 1.56 | 100 | |
| 20260905203154 | 55 | 180 | 0.0 | 0.0 | 0.00 | 1.86 | 1.56 | 100 | |
| 20260905202654 | 55 | 180 | 0.0 | 0.0 | 0.00 | 1.86 | 1.56 | 100 | |
| 20260905202154 | 55 | 180 | 0.0 | 0.0 | 0.00 | 1.86 | 1.56 | 100 | |
| 20260905201654 | 55 | 180 | 0.0 | 0.0 | 0.00 | 1.86 | 1.56 | 100 | |
| 20260905201154 | 54 | 180 | 0.0 | 0.0 | 0.00 | 1.86 | 1.56 | 100 | |
| 20260905200654 | 54 | 180 | 0.0 | 0.0 | 0.00 | 1.86 | 1.56 | 100 | |
| 20260905200154 | 54 | 180 | 0.0 | 0.0 | 0.00 | 1.86 | 1.56 | 100 | |
| 20260905195654 | 54 | 180 | 0.0 | 0.0 | 0.00 | 1.86 | 1.56 | 100 | |
| 20260905195154 | 54 | 180 | 0.0 | 0.0 | 0.00 | 1.86 | 1.56 | 100 | |
| 20260905194654 | 54 | 180 | 0.0 | 0.0 | 0.00 | 1.86 | 1.56 | 100 | |
| 20260905194154 | 54 | 180 | 0.0 | 0.0 | 0.00 | 1.86 | 1.56 | 100 | |
| 20260905193654 | 54 | 180 | 0.0 | 0.0 | 0.00 | 1.86 | 1.56 | 100 | |
| 20260905193154 | 54 | 180 | 0.0 | 0.0 | 0.00 | 1.86 | 1.56 | 100 | |
| 20260905192654 | 54 | 180 | 0.0 | 0.0 | 0.00 | 1.86 | 1.56 | 100 | |
| 20260905192154 | 54 | 180 | 0.0 | 0.0 | 0.00 | 1.86 | 1.56 | 99 | |
| 20260905191654 | 54 | 180 | 0.0 | 0.0 | 0.00 | 1.86 | 1.56 | 99 | |
| 20260905191154 | 54 | 180 | 0.0 | 0.0 | 0.00 | 1.86 | 1.56 | 98 | |
| 20260905190654 | 55 | 180 | 0.0 | 0.0 | 0.00 | 1.86 | 1.56 | 98 | |
| 20260905190156 | 55 | 180 | 0.0 | 0.0 | 0.00 | 1.86 | 1.56 | 98 | |
| 20260905185654 | 55 | 180 | 0.0 | 0.0 | 0.00 | 1.86 | 1.56 | 98 | |
| 20260905185154 | 55 | 180 | 0.0 | 0.0 | 0.00 | 1.86 | 1.56 | 98 | |
| 20260905184654 | 55 | 180 | 0.0 | 0.0 | 0.00 | 1.87 | 1.56 | 98 | |
| 20260905184154 | 55 | 180 | 0.0 | 0.0 | 0.00 | 1.87 | 1.56 | 97 | |
| 20260905183654 | 55 | 180 | 0.0 | 0.0 | 0.00 | 1.87 | 1.56 | 97 |